Volver al catálogo

STARLINK-31768

ActivoComunicacionesVLEO
NORAD 59616·PAYLOAD·🇺🇸 United States

Lanzado Apr 28, 2024 desde Cape Canaveral Space Force Station

Loading…

Próximos Pases (próximas 24 horas)

TLE

ActualizadoSource: CelesTrak SupGP

Época: Sep 15, 2026, 03:27 UTC

1 59616C 24080R   26258.14423611 -.00020327  00000+0 -73635-3 0  2586
2 59616  43.0033  48.0667 0001575 271.1886 177.7227 15.27584381    12

Sigue STARLINK-31768 en tiempo real con AllMySat

Download on the App Store